This demonstration page uses our WeatherBlox Daily Observations layout. Learn more.

Hourly Observations for October 30, 2020

Temp ( °F °C ) Dew Point ( °F °C ) Humidity (%) Winds ( mph kmh ) Pressure ( in mb ) Visibility ( mi km ) Precip ( " mm )
12:15 am 00:15 Clear 41 4.8 32 0 71 71 SW 6 9 30.15 1021 10 16.0934 0 0
12:35 am 00:35 Clear 40 4.6 32 0 72 72 SW 5 7 30.14 1021 10 16.0934 0 0
12:55 am 00:55 Clear 42 5.3 33 0.3 70 70 Calm 30.14 1020 10 16.0934 0 0
1:15 am 01:15 Clear 43 6.2 34 1.2 71 71 WSW 3 6 30.13 1020 10 16.0934 0 0
1:35 am 01:35 Clear 45 7.4 36 2.2 70 70 W 10 17 30.12 1020 10 16.0934 0 0
1:55 am 01:55 Clear 45 7 36 2 71 71 W 9 15 30.12 1020 10 16.0934 0 0
2:15 am 02:15 Clear 43 5.9 35 1.9 76 76 W 8 13 30.14 1021 10 16.0934 0 0
2:35 am 02:35 Clear 42 5.4 35 1.9 78 78 W 9 15 30.14 1021 10 16.0934 0 0
2:55 am 02:55 Clear 42 5.5 35 1.7 77 77 WNW 6 9 30.14 1021 10 16.0934 0 0
3:15 am 03:15 Clear 41 4.9 34 1.3 78 78 WNW 7 11 30.15 1021 10 16.0934 0 0
3:35 am 03:35 Clear 40 4.5 34 1.1 79 79 WNW 7 11 30.16 1021 10 16.0934 0 0
3:55 am 03:55 Clear 38 3.5 33 0.5 81 81 NW 6 9 30.17 1022 10 16.0934 0 0
4:15 am 04:15 Clear 39 3.7 33 0.7 81 81 NW 7 11 30.17 1022 10 16.0934 0 0
4:35 am 04:35 Clear 39 4.1 34 1.1 81 81 NW 8 13 30.17 1022 10 16.0934 0 0
4:55 am 04:55 Clear 39 4 34 1 81 81 W 7 11 30.17 1022 10 16.0934 0 0
5:15 am 05:15 Clear 39 4.1 34 1 80 80 WNW 8 13 30.19 1022 10 16.0934 0 0
5:35 am 05:35 Clear 39 4 33 0.8 80 80 WNW 8 13 30.19 1022 10 16.0934 0 0
5:55 am 05:55 Clear 37 2.9 32 0.2 83 83 NW 7 11 30.2 1023 10 16.0934 0 0
6:15 am 06:15 Clear 37 3 33 0.3 83 83 NW 7 11 30.2 1023 10 16.0934 0 0
6:35 am 06:35 Clear 37 2.8 33 0.4 84 84 NW 7 11 30.21 1023 10 16.0934 0 0
6:55 am 06:55 Clear 37 2.7 32 0.2 84 84 NW 6 9 30.21 1023 10 16.0934 0 0
7:15 am 07:15 Clear 36 2.2 32 0 86 86 NW 3 6 30.22 1024 10 16.0934 0 0
7:35 am 07:35 Clear 36 2.3 32 0 85 85 WNW 6 9 30.23 1024 10 16.0934 0 0
7:55 am 07:55 Clear 35 1.9 32 0 87 87 NW 7 11 30.23 1024 10 16.0934 0 0
8:15 am 08:15 Sunny 35 1.7 32 -0.1 88 88 NW 6 9 30.24 1024 10 16.0934 0 0
8:35 am 08:35 Sunny 36 2.2 32 0 86 86 NW 6 9 30.23 1024 10 16.0934 0 0
8:55 am 08:55 Sunny 38 3.1 33 0.5 83 83 NW 5 7 30.24 1024 10 16.0934 0 0
9:15 am 09:15 Sunny 39 4.1 34 1.1 81 81 NNW 3 6 30.24 1024 10 16.0934 0 0
9:35 am 09:35 Sunny 43 5.9 36 2.1 77 77 NNW 5 7 30.23 1024 10 16.0934 0 0
9:55 am 09:55 Sunny 45 7.3 37 2.7 73 73 NNW 5 7 30.23 1024 10 16.0934 0 0
10:15 am 10:15 Sunny 48 9.1 38 3.4 68 68 NNW 5 7 30.21 1023 10 16.0934 0 0
10:35 am 10:35 Sunny 51 10.8 39 3.9 63 63 N 5 7 30.2 1023 10 16.0934 0 0
10:55 am 10:55 Sunny 55 12.7 39 4 56 56 N 6 9 30.17 1022 10 16.0934 0 0
11:15 am 11:15 Sunny 56 13.5 39 3.8 52 52 NNE 6 9 30.16 1021 10 16.0934 0 0
11:35 am 11:35 Sunny 58 14.5 39 4.1 50 50 NE 3 6 30.15 1021 10 16.0934 0 0
11:55 am 11:55 Sunny 60 15.6 38 3.6 45 45 NE 3 6 30.13 1020 10 16.0934 0 0
12:15 pm 12:15 Sunny 63 17.1 37 2.9 39 39 ESE 5 7 30.11 1020 10 16.0934 0 0
12:35 pm 12:35 Sunny 64 18 37 2.7 36 36 SE 6 9 30.1 1019 10 16.0934 0 0
12:55 pm 12:55 Sunny 66 18.7 37 2.5 34 34 SE 6 9 30.09 1019 10 16.0934 0 0
1:15 pm 13:15 Sunny 66 19.1 36 2.2 33 33 Calm 30.08 1019 10 16.0934 0 0
1:35 pm 13:35 Sunny 67 19.5 36 2.1 32 32 SSE 5 7 30.06 1018 10 16.0934 0 0
1:55 pm 13:55 Sunny 68 19.8 35 1.9 31 31 SE 8 13 30.04 1017 10 16.0934 0 0
2:15 pm 14:15 Sunny 69 20.3 36 2 30 30 S 8 13 30.02 1017 10 16.0934 0 0
2:35 pm 14:35 Sunny 69 20.6 35 1.6 28 28 SE 7 11 30 1016 10 16.0934 0 0
2:55 pm 14:55 Sunny 70 21.2 35 1.8 28 28 S 9 15 30 1016 10 16.0934 0 0
3:15 pm 15:15 Sunny 69 20.7 35 1.6 28 28 S 10 17 30 1016 10 16.0934 0 0
3:35 pm 15:35 Sunny 69 20.8 34 1.3 27 27 S 9 15 29.98 1015 10 16.0934 0 0
3:55 pm 15:55 Sunny 70 20.9 34 1.2 27 27 S 9 15 29.98 1015 10 16.0934 0 0
4:15 pm 16:15 Sunny 70 21.1 34 1.2 27 27 SSE 9 15 29.97 1015 10 16.0934 0 0
4:35 pm 16:35 Sunny 70 21.2 34 0.9 26 26 S 9 15 29.96 1014 10 16.0934 0 0
4:55 pm 16:55 Sunny 70 20.9 35 1.5 28 28 S 10 17 29.95 1014 10 16.0934 0 0
5:15 pm 17:15 Sunny 68 20.2 34 1.1 28 28 S 12 19 29.96 1014 10 16.0934 0 0
5:35 pm 17:35 Sunny 68 19.8 34 1.2 29 29 S 8 13 29.96 1015 10 16.0934 0 0
5:55 pm 17:55 Sunny 66 18.8 34 1.3 31 31 S 8 13 29.95 1014 10 16.0934 0 0
6:15 pm 18:15 Sunny 64 17.5 35 1.4 34 34 SSE 7 11 29.96 1014 10 16.0934 0 0
6:35 pm 18:35 Sunny 60 15.5 34 1.1 38 38 SSE 8 13 29.96 1015 10 16.0934 0 0
6:55 pm 18:55 Clear 57 14 35 1.4 43 43 SSE 7 11 29.98 1015 10 16.0934 0 0
7:15 pm 19:15 Clear 53 11.9 35 1.5 49 49 SSE 8 13 29.99 1015 10 16.0934 0 0
7:35 pm 19:35 Clear 54 12.1 35 1.4 48 48 SE 10 17 29.98 1015 10 16.0934 0 0
7:55 pm 19:55 Clear 53 11.6 35 1.5 50 50 SE 10 17 29.99 1016 10 16.0934 0 0
8:15 pm 20:15 Clear 51 10.5 35 1.5 54 54 SE 10 17 30 1016 10 16.0934 0 0
8:35 pm 20:35 Clear 52 11.2 36 2 53 53 SE 10 17 29.99 1016 10 16.0934 0 0
8:55 pm 20:55 Clear 53 11.6 37 2.5 54 54 SE 12 19 29.99 1016 10 16.0934 0 0
9:15 pm 21:15 Clear 52 10.9 36 2.4 56 56 SSE 9 15 29.98 1015 10 16.0934 0 0
9:35 pm 21:35 Clear 49 9.5 36 2.1 60 60 SSE 7 11 29.98 1015 10 16.0934 0 0
9:55 pm 21:55 Clear 48 8.8 36 2.1 63 63 SSE 8 13 29.99 1016 10 16.0934 0 0
10:15 pm 22:15 Clear 50 10.2 37 2.6 60 60 SSE 8 13 29.97 1015 10 16.0934 0 0
10:35 pm 22:35 Clear 50 10 37 2.7 61 61 S 8 13 29.97 1015 10 16.0934 0 0
10:55 pm 22:55 Clear 52 11.1 38 3.3 59 59 S 10 17 29.96 1015 10 16.0934 0 0
11:15 pm 23:15 Clear 50 10 38 3.1 63 63 S 9 15 29.96 1015 10 16.0934 0 0
11:35 pm 23:35 Clear 50 10.2 38 3.4 63 63 S 15 24 29.96 1015 10 16.0934 0 0
11:55 pm 23:55 Clear 50 10.1 38 3.6 64 64 S 15 24 29.96 1015 10 16.0934 0 0

Powered by AerisWeather